Location: Brunsbüttel
(52.3892°N, 10.6138°E)
Time: 05:26:54
(UTC+00:00)

SPOT 3 Rocket - Pass Details

Date: 19 May 2025
Orbit: 775 x 790 km, 98.5° (Epoch: 14 June)

Event Time Altitude Azimuth Distance (km) Brightness Sun altitude
Exits shadow 20:03:00 - 146° (SE) 2,530 5.5 -6.6°
Reaches altitude 10° 20:03:31 10° 144° (SE) 2,326 5.3 -6.7°
Maximum altitude 20:08:31 55° 68° (ENE) 930 3.8 -7.2°
Drops below altitude 10° 20:13:32 10° 352° (N) 2,338 7.0 -7.7°
Sets 20:15:53 0° 348° (NNW) 3,269 7.9 -8.0°
